Printer-friendly version

IAU Minor Planet Center

Minor Planet Center

MPEC 2007-T92 : 2007 TB25

The following Minor Planet Electronic Circular may be linked-to from your own Web pages, but must not otherwise be redistributed electronically.


Read MPEC 2007-T91 Read MPEC 2007-T93


M.P.E.C. 2007-T92                                Issued 2007 Oct. 12, 16:34 UT

     The Minor Planet Electronic Circulars contain information on unusual
         minor planets and routine data on comets.  They are published
   on behalf of Commission 20 of the International Astronomical Union by the
          Minor Planet Center, Smithsonian Astrophysical Observatory,
                          Cambridge, MA 02138, U.S.A.

             Prepared using the Tamkin Foundation Computer Network

                              MPC@CFA.HARVARD.EDU
          URL http://www.cfa.harvard.edu/iau/mpc.html  ISSN 1523-6714

                                   2007 TB25

Observations:
     K07T25B* C2007 10 11.38733 04 08 41.53 -10 06 04.1          19.2 V ET092703
     K07T25B  C2007 10 11.39558 04 08 46.14 -10 06 45.0          20.0 V ET092703
     K07T25B  C2007 10 11.40384 04 08 50.71 -10 07 29.9          20.0 V ET092703
     K07T25B  C2007 10 11.41207 04 08 55.28 -10 08 12.4          19.8 V ET092703
     K07T25B  C2007 10 11.48106 04 09 33.92 -10 14 12.5          19.9 V ET092703
     K07T25B  C2007 10 11.48177 04 09 34.27 -10 14 15.4          20.0 V ET092703
     K07T25B  C2007 10 11.48318 04 09 35.08 -10 14 24.5          20.3 V ET092703
     K07T25B  C2007 10 12.48016 04 19 18.15 -11 40 58.5          19.9 V ET092G96
     K07T25B  C2007 10 12.48071 04 19 18.44 -11 41 01.5          19.9 V ET092G96
     K07T25B  C2007 10 12.48124 04 19 18.76 -11 41 04.2          20.1 V ET092G96
     K07T25B  C2007 10 12.48177 04 19 18.94 -11 41 07.7          19.4 V ET092G96
     K07T25B  C2007 10 12.48282 04 19 19.66 -11 41 12.1          19.9 V ET092G96
     K07T25B  C2007 10 12.48336 04 19 19.95 -11 41 15.2          20.0 V ET092G96
     K07T25B  C2007 10 12.48390 04 19 20.28 -11 41 17.6          19.9 V ET092G96
     K07T25B  C2007 10 12.48443 04 19 20.56 -11 41 20.7          19.9 V ET092G96

Observer details:
703 Catalina Sky Survey.  Observer A. R. Gibbs.  Measurers E. C. Beshore,
    A. Boattini, G. J. Garradd, A. R. Gibbs, A. D. Grauer, R. E. Hill,
    R. A. Kowalski, S. M. Larson, R. H. McNaught.  0.68-m Schmidt + CCD.
G96 Mt. Lemmon Survey.  Observer R. E. Hill.  Measurers E. C. Beshore,
    A. Boattini, G. J. Garradd, A. R. Gibbs, A. D. Grauer, R. E. Hill,
    R. A. Kowalski, S. M. Larson, R. H. McNaught.  1.5-m reflector + CCD.

Orbital elements:
2007 TB25                                                Earth MOID = 0.1211 AU
Epoch 2007 Oct. 27.0 TT = JDT 2454400.5                 MPC
M 355.24519              (2000.0)            P               Q
n   0.28174011     Peri.  235.27940     +0.51607002     -0.85643517
a   2.3044658      Node   183.73293     +0.83874687     +0.50854829
e   0.5567811      Incl.   12.24006     +0.17371072     +0.08886747
P   3.50           H   22.2           G   0.15           U   9
Residuals in seconds of arc
071011 703  0.4+  1.0-    071011 703  0.3-  0.8+    071012 G96  1.5-  0.7-
071011 703  0.4+  1.3+    071011 703  0.0   1.0-    071012 G96  0.3+  0.3+
071011 703  0.3-  0.4-    071012 G96  0.3+  0.1+    071012 G96  0.1+  0.0
071011 703  0.7-  0.2+    071012 G96  0.0   0.0     071012 G96  0.4+  0.4+
071011 703  0.4+  0.0     071012 G96  0.3+  0.0     071012 G96  0.1+  0.0

Ephemeris:
2007 TB25                a,e,i = 2.30, 0.56, 12                  q = 1.0214
Date    TT    R. A. (2000) Decl.     Delta      r     Elong.  Phase     V
2007 10 07    03 28.08   -03 50.4    0.154    1.121   139.2    35.7    19.8
2007 10 17    05 04.25   -17 53.5    0.145    1.076   119.7    53.6    20.1
2007 10 27    06 36.24   -27 28.2    0.166    1.043   102.8    68.3    20.8
2007 11 06    07 43.69   -31 29.4    0.203    1.025    93.8    74.8    21.4
2007 11 16    08 28.67   -32 43.8    0.244    1.022    90.9    75.4    21.8

Timothy B. Spahr             (C) Copyright 2007 MPC           M.P.E.C. 2007-T92

Read MPEC 2007-T91 Read MPEC 2007-T93


Our Web policy. Index to the CBAT/MPC/ICQ pages.


Valid HTML 4.01!